CZ-6A DEB, 61145

Orbit data source: Space-Track

CZ-6A DEB, 61145 is space debris in LEO originally from a launch on Tue, 06 Aug 2024 UTC launched from the Taiyaun Space Center, China (TSC). Debris objects in space refer to the collection of defunct objects orbiting the Earth. Examples of debris include non-operational satellites, rocket bodies, and fragments generated from explosions, collisions, or faulty payload assembly.

Loading next visibility...
Identifier
61145, 2024-140QP
Orbit
LEO
Country
Flag of CNCN / PRC
Related business
Manufacturer
SAST
Mission
Spacecraft
Bus & Motor
Unknown
Mass
Unknown
Launch date (UTC)
2024-08-06 (2 years ago)
Launch vehicle
Unknown
Launch site
Taiyaun Space Center, China (TSC)
Object type
Payload
Rocket body
Debris
Shape & HBR
Unknown shape, 0.1 m
Radar Cross Section
Medium (>0.1 m² and <1 m²)

Expand to show TLE details & history
Last TLE update: 1 day ago

TLE from 1 day ago
0 CZ-6A DEB
1 61145U 24140QP  26170.71333702  .00020488  00000-0  25402-2 0  9997
2 61145  88.9310 263.2226 0053327 222.9869 136.7184 14.81558024 97575
Epoch: 2026-06-19T17:07Z
TLE epoch observation values (Epoch: 2026-06-19T17:07:12.318Z)
Latitude
Longitude
98.48291°
Altitude
654.835 km
Speed
7.515 km/s
True Right ascension
17h 32m 53s
True Declination
0° 00' 00"
Sunlit
Object was in full shadow at epoch
Visualization orbit readout
Latitude
Unknown
Longitude
Unknown
Altitude
Unknown
Speed
Unknown
Apparent Right ascension
Unknown
Apparent Declination
Unknown
Sunlit
N/A
Visualization observer readout
Local Sidereal Time
07:24:32
Azimuth
Unknown
Elevation
Unknown
Doppler factor
Unknown
Orbital elements
Apogee altitude
658.6 km
Perigee altitude
583.949 km
Semi-major axis
6,999.411 km
Eccentricity
0.00533
Inclination
88.931°
RAAN
263.2226°
Arg. of periapsis
222.9869°
True anomaly
137.13532°
Mean anomaly
136.7184°
Eccentric anomaly
136.92706°
Mean motion
3.70639 °/min
Orbital period
97.13 mins
BSTAR
0.0025402
Loading maneuver chart data...
Computing Atmospheric mass density...
Loading historical data...
Loading historical data...
Loading historical data...
Loading historical data...
Loading historical data...
Loading historical data...
Loading historical data...

Documentation

Showing up to 5 results
|